This demonstration page uses our WeatherBlox Daily Observations layout. Learn more.

Left ArrowRight Arrow

39.08367, -84.50855

Hourly Observations for July 5, 2015

Temp ( °F °C ) Dew Point ( °F °C ) Humidity (%) Winds ( mph kmh ) Pressure ( in mb ) Visibility ( mi km ) Precip ( " mm )
12:53 am 00:53 Clear with Mist and Fog 64 17.8 62 16.7 93 93 Calm 30.05 1018 5 8 0.00 0.00
1:53 am 01:53 Clear with Mist and Fog 63 17.2 62 16.7 97 97 Calm 30.06 1018 5 8 0.00 0.00
2:53 am 02:53 Clear with Mist and Fog 63 17.2 62 16.7 97 97 Calm 30.05 1018 4 6 0.00 0.00
3:53 am 03:53 Clear with Mist and Fog 63 17.2 61 16.1 93 93 Calm 30.05 1018 5 8 0.00 0.00
4:53 am 04:53 Mostly Cloudy with Mist and Fog 62 16.7 62 16.7 100 100 Calm 30.05 1018 3 5 0.00 0.00
5:53 am 05:53 Clear with Mist and Fog 62 16.7 62 16.7 100 100 Calm 30.08 1019 4 6 0.00 0.00
6:39 am 06:39 Sunny with Mist and Fog 61 16.1 61 16.1 100 100 Calm 30.06 1018 3 4 0.00 0.00
6:42 am 06:42 Partly Cloudy with Mist and Fog 61 16 61 16 100 100 Calm 30.06 1018 3 5 0.00 0.00
6:53 am 06:53 Sunny with Mist and Fog 62 16.7 61 16.1 96 96 NE 3 6 30.09 1019 6 10 0.00 0.00
7:53 am 07:53 Sunny with Mist and Fog 63 17.2 62 16.7 97 97 Calm 30.10 1019 4 6 0.00 0.00
8:53 am 08:53 Sunny with Mist and Fog 66 18.9 62 16.7 87 87 Calm 30.09 1019 6 10 0.00 0.00
9:53 am 09:53 Sunny 70 21.1 62 16.7 76 76 NNE 6 9 30.09 1019 10 16 0.00 0.00
10:53 am 10:53 Mostly Sunny 73 22.8 63 17.2 71 71 NNE 6 9 30.10 1019 10 16 0.00 0.00
11:53 am 11:53 Sunny 74 23.3 62 16.7 67 67 NE 5 7 30.10 1019 10 16 0.00 0.00
12:53 pm 12:53 Sunny 75 23.9 63 17.2 66 66 ENE 7 11 30.09 1019 10 16 0.00 0.00
1:53 pm 13:53 Sunny 77 25 63 17.2 62 62 NNE 7 11 30.08 1019 9 14 0.00 0.00
2:53 pm 14:53 Sunny 78 25.6 62 16.7 58 58 NNE 3 6 30.07 1018 10 16 0.00 0.00
3:53 pm 15:53 Sunny 77 25 60 15.6 56 56 E 3 6 30.07 1018 10 16 0.00 0.00
4:53 pm 16:53 Sunny 78 25.6 61 16.1 56 56 Calm 30.06 1018 10 16 0.00 0.00
5:53 pm 17:53 Sunny 78 25.6 62 16.7 58 58 NE 5 7 30.06 1018 10 16 0.00 0.00
6:53 pm 18:53 Sunny 78 25.6 62 16.7 58 58 N 3 6 30.04 1017 10 16 0.00 0.00
7:53 pm 19:53 Sunny 75 23.9 66 18.9 74 74 NE 5 7 30.05 1018 10 16 0.00 0.00
8:53 pm 20:53 Sunny 70 21.1 66 18.9 87 87 Calm 30.06 1018 10 16 0.00 0.00
9:53 pm 21:53 Clear 67 19.4 65 18.3 93 93 Calm 30.06 1018 10 16 0.00 0.00
10:53 pm 22:53 Clear 66 18.9 64 17.8 93 93 Calm 30.07 1018 10 16 0.00 0.00
11:53 pm 23:53 Clear 67 19.4 65 18.3 93 93 Calm 30.08 1019 10 16 0.00 0.00

Powered by AerisWeather